Nachtflug: NVFR

Flugschule

Flugschule

Wir bieten eine professionelle und umfassende Ausbildung.

Flugwetter Augsburg

[Quelle: ADDS]
METAR
EDMA 270220Z AUTO 15003KT 0600 R25/0800N // VV/// M02/M02 Q1029 =
EDMA 261700Z 2618/2703 VRB03KT 8000 NSC BECMG 2618/2620 1500 BCFG BECMG 2620/2623 0500 FG VV002
TAF

Kontakt

Nachtflug: NVFR

Berechtigung

Nachtflug: NVFRZur Durchführung von Überlandflügen bei Nacht.

Voraussetzungen

Die Voraussetzung für diese Qualifikation ist der LAPL (A) oder PPL (A)

Achtung: für LAPL Inhaber, ist die Instrumentenflugausbildung der PPL (A) erforderlich

Theoretische Ausbildung

  • zwei Stunden Theorieausbildung

Praktische Ausbildung

Zur praktischen Ausbildung gehören 5 Flugstunden bei Nacht, davon mindestens 3 Stunden Ausbildung mit einem Lehrberechtigten, davon mindestens eine Stunde Überland-Navigation mit mindestens einem Überlandflug mit Fluglehrer von mindestens 50 km und 5 Alleinstarts und 5 Alleinlandungen bis zum vollständigen Stillstand.

Prüfung

Eine Prüfung ist nicht erforderlich. Mit Abschluss der erforderlichen Flugausbildung senden wir das Antragsformular an die zuständige Luftfahrtbehörde. Sie bekommen dann eine neue Lizenz mit der Eintragung NVFR.